Location: *
(51.4660°N, 0.3360°W)
Time: 04:36:48
(UTC+00:00)

CZ-2C R/B - Pass Details

Date: 19 September 2019
Orbit: 704 x 907 km, 98.1° (Epoch: 22 October)

Event Time Altitude Azimuth Distance (km) Brightness Sun altitude
Exits shadow 21:11:03 23° 217° (SW) 1,649 4.6 -26.9°
Maximum altitude 21:13:35 36° 266° (W) 1,291 4.4 -27.1°
Drops below altitude 10° 21:18:40 10° 332° (NNW) 2,502 6.5 -27.7°
Sets 21:21:20 0° 341° (NNW) 3,472 7.4 -28.0°
